Regional Weather Roundup
Issued by NWS

Home | Current Version | Previous Version | Graphics & Text | Print | Product List | Glossary On
Versions: 1 2 3 4 5 6 7 8 9 10 11 12 13 14 15 16 17 18 19 20 21 22 23 24 25 26 27 28 29 30 31 32 33 34 35 36 37 38 39 40 41 42 43 44 45 46 47 48 49 50
000
ASUS43 KMPX 190210
RWRMN
WEATHER ROUNDUP FOR MINNESOTA
NATIONAL WEATHER SERVICE TWIN CITIES/CHANHASSEN MN
900 PM CDT FRI APR 18 2014


NOTE: "FAIR" INDICATES FEW OR NO CLOUDS BELOW 12,000 FEET WITH NO
SIGNIFICANT WEATHER AND/OR OBSTRUCTIONS TO VISIBILITY. N/A MEANS
CURRENT SKY AND/OR WEATHER CONDITIONS ARE NOT AVAILABLE.

MNZ060>063-068>070-190300-
   Twin Cities Metro

CITY           SKY/WX    TMP DP  RH WIND       PRES   REMARKS
TWIN CITIES    MOCLDY    48  28  46 E13       30.20F
ST PAUL        PTCLDY    47  28  47 E10       30.22F
CRYSTAL        CLEAR     48  27  44 E7G17     30.20S
EDEN PRAIRIE   CLEAR     49  27  42 E14       30.19S
LAKEVILLE      CLEAR     43  30  61 E9        30.20S
SOUTH ST PAUL  CLEAR     51  28  41 E5        30.21F
LAKE ELMO      FAIR      45  30  57 E7        30.23F
$$
MNZ001>005-007-008-013>017-022>024-027-028-190300-
   Northwest Minnesota

CITY           SKY/WX    TMP DP  RH WIND       PRES   REMARKS
BEMIDJI        CLOUDY    41  20  41 SE18G28   30.14F
HALLOCK        CLOUDY    46  25  42 SE26G33   30.00F
ROSEAU         CLOUDY    46  19  34 SE16      30.11S
WARROAD        CLOUDY    39  27  60 E10       30.14R
THIEF RVR FALL CLOUDY    45  25  45 SE25      30.05F
CROOKSTON      CLOUDY    46  28  49 SE24G35   30.00F
FOSSTON        CLOUDY    41  21  45 SE15G33   30.07F
DETROIT LAKES  CLOUDY    41  28  60 SE23G32   30.05F
MOORHEAD       CLOUDY    45  30  57 SE23G32   29.97F
PARK RAPIDS    CLOUDY    41  23  48 SE13G21   30.14F
$$
MNZ006-009>011-018-025>026-190300-
   North Central Minnesota

CITY           SKY/WX    TMP DP  RH WIND       PRES   REMARKS
BAUDETTE       CLOUDY    42  17  36 SE14      30.16S
FLAG ISLAND    CLOUDY    39  16  38 E15G22    30.15F
INTL FALLS     MOCLDY    40  14  34 SE10      30.22S
WASKISH        CLOUDY    45  19  36 SE15      30.16F
BIG FORK       CLOUDY    39  16  38 SE10G16   30.23S
LONGVILLE      CLOUDY    41  18  38 SE8       30.20S
GRAND RAPIDS   CLOUDY    37  12  35 SE13G20   30.24R
CRANE LAKE     MOCLDY    36  18  48 SE3       30.29S
ORR            MOCLDY    39  18  41 SE9G18    30.24R
COOK           PTCLDY    37  19  48 SE13      30.28R
$$
MNZ012-019>021-037-190300-
   Northeast Minnesota

CITY           SKY/WX    TMP DP  RH WIND       PRES   REMARKS
DULUTH         MOCLDY    34  22  61 E15       30.29S WCI  24
ELY            MOCLDY    34  21  60 SE12      30.30S WCI  25
HIBBING        MOCLDY    37  16  42 SE13      30.27S
EVELETH        MOCLDY    34  19  55 SE12      30.30R WCI  25
DULUTH HARBOR  MOCLDY    34  28  80 NE13      30.35R WCI  25
TWO HARBORS    PTCLDY    30  21  69 E8        30.31S WCI  23
SILVER BAY     PTCLDY    28  27  93 NE7       30.34F WCI  21
GRAND MARAIS     N/A     29  23  78 CALM      30.41R
G MARAIS ARPRT CLEAR     25  18  74 CALM      30.35R
$$
MNZ029>031-032-039>041-046>048-054>057-064-190300-
   West Central Minnesota

CITY           SKY/WX    TMP DP  RH WIND       PRES   REMARKS
FERGUS FALLS   MOCLDY    43  25  49 SE22G33   30.00S
WHEATON        CLOUDY    46  37  71 E30G36    29.98F
MORRIS         MOCLDY    45  34  65 SE29G36   30.01S
ALEXANDRIA     MOCLDY    40  29  64 E18G30    30.08F
ELBOW LAKE     FAIR      43  30  61 E23G31    30.02S
WADENA         CLOUDY    39  27  60 E17G23    30.11F
GLENWOOD       PTCLDY    39  30  70 E25       30.08F
APPLETON       CLOUDY    48  36  61 E24G32    30.00S
BENSON         MOCLDY    46  34  61 SE17G29   30.05S
ORTONVILLE     CLOUDY    46  36  66 SE24G31   29.96S
MADISON        CLOUDY    54  39  58 SE25G32   29.98S
WILLMAR        FAIR      46  34  61 E23       30.10S
$$
MNZ033>034-036-042>043-049>051-058-059-190300-
   Central Minnesota

CITY           SKY/WX    TMP DP  RH WIND       PRES   REMARKS
ST CLOUD       PTCLDY    41  25  53 E8        30.19R
SAUK CENTRE    FAIR      39  29  68 E15       30.13F
PAYNESVILLE    MOCLDY    42  30  62 E12       30.14F
AITKIN         CLOUDY    45  19  36 E6        30.23R
PINE RIVER     CLOUDY    41  25  52 SE13      30.22S
BRAINERD       CLOUDY    45  22  40 SE9G17    30.21S
STAPLES        MOCLDY    39  23  52 SE12      30.16S
LONG PRAIRIE   FAIR      37  28  70 E12G20    30.15F
LITTLE FALLS   MOCLDY    39  23  52 E9        30.19F
LITCHFIELD     PTCLDY    43  32  65 E15       30.14F
BUFFALO        PTCLDY    43  30  59 E6        30.21R
MAPLE LAKE     PTCLDY    43  31  62 E6        30.20R
$$
MNZ037-044-045-052-053-190300-
   East Central Minnesota

CITY           SKY/WX    TMP DP  RH WIND       PRES   REMARKS
PRINCETON      PTCLDY    43  25  49 E6        30.23R
MORA           MOCLDY    37  23  56 E8        30.26R
CAMBRIDGE      PTCLDY    45  28  53 E7        30.22R
RUSH CITY      PTCLDY    41  24  49 E5        30.25R
MOOSE LAKE     CLOUDY    36  21  55 E5        30.26S
HINCKLEY       FAIR      41  23  48 E7        30.26R
CLOQUET        CLOUDY    36  23  60 E10       30.28S
MCGREGOR       CLOUDY    36  21  55 E12G18    30.25R
$$
MNZ071>073-080-081-089-090-097-098-190300-
   Southwest Minnesota

CITY           SKY/WX    TMP DP  RH WIND       PRES   REMARKS
MONTEVIDEO     CLOUDY    46  37  71 SE21      30.03F
GRANITE FALLS  MOCLDY    49  36  59 E20G26    30.05F
CANBY          CLOUDY    52  38  57 SE17G24   29.97F
MARSHALL       CLOUDY    54  34  47 SE20      29.99F
REDWOOD FALLS  MOCLDY    50  36  58 SE18G26   30.06F
OLIVIA         PTCLDY    46  36  66 E15G21    30.08F
PIPESTONE      CLOUDY    55  36  47 S18       29.97S
WINDOM         CLOUDY    54  30  40 SE16G22   30.08R
WORTHINGTON    CLOUDY    54  28  37 SE16      30.06S
JACKSON        CLOUDY    52  30  43 SE15      30.10R
TRACY          CLOUDY    52  36  53 SE15      30.03F
SLAYTON        CLOUDY    51  35  55 SE21      30.02F
$$
MNZ065>067-074>077-082>085-091>093-190300-
   South Central Minnesota

CITY           SKY/WX    TMP DP  RH WIND       PRES   REMARKS
MANKATO        PTCLDY    48  34  57 SE14      30.16S
NEW ULM        PTCLDY    52  34  50 SE16G23   30.12S
ST JAMES       MOCLDY    52  34  50 E17       30.12S
FAIRMONT       MOCLDY    50  32  50 SE17      30.13F
GLENCOE        PTCLDY    46  32  57 E14       30.15S
FARIBAULT      CLEAR     50  28  43 E9        30.20R
OWATONNA       CLEAR     48  34  57 SE12      30.20R
WASECA         CLEAR     45  36  70 E9        30.20R
ALBERT LEA     CLEAR     48  36  61 SE9       30.19R
$$
MNZ078>079-086>088-094>096-190300-
   Southeast Minnesota

CITY           SKY/WX    TMP DP  RH WIND       PRES   REMARKS
ROCHESTER      CLEAR     45  29  53 E13       30.21F
RED WING       CLEAR     46  28  49 E5        30.23F
STANTON        CLEAR     48  28  46 E9G16     30.19F
DODGE CENTER   CLEAR     48  32  53 SE12      30.20F
WINONA         CLEAR     43  32  65 SE5       30.27S
AUSTIN         CLEAR     46  36  66 SE10      30.20S
PRESTON        CLEAR     48  29  48 SE8       30.24F
$$
ABBREVIATIONS USED IN REMARKS
   TC - TEMPERATURES IN CELSIUS
  WCI - WIND CHILL INDEX
   HX - HEAT INDEX
  VSB - VISIBILITY
$$



USA.gov is the U.S. government's official web portal to all federal, state and local government web resources and services.